Wind_Speed
13 14 15 15 17 20 23 27 30 33 35 39 43 46 49 52 55 58 61 63 65 65 62 59 58 58 57 57 56 54 52 50 46 43 41 38 36 36 37 40 45 52 60 67
15 17 16 15 18 22 26 28 29 32 36 40 44 47 49 52 56 59 61 61 60 58 55 55 55 55 56 56 56 55 53 50 48 45 43 41 38 37 35 35 35 37 40 47
17 20 19 19 23 26 29 30 33 37 41 44 46 49 52 56 59 60 59 57 54 53 53 55 56 57 58 58 58 57 56 54 52 50 48 45 43 40 38 36 34 34 33 34
21 22 23 24 27 30 33 35 37 40 44 47 51 52 55 58 58 56 54 52 52 52 54 56 58 60 60 60 60 59 58 56 54 53 51 49 47 44 42 40 37 36 35 34
24 26 27 28 31 33 36 38 40 43 46 49 52 52 53 55 55 53 52 52 52 54 56 58 60 61 61 61 60 59 57 55 53 52 52 51 48 46 44 43 41 39 37 36
25 27 29 31 33 35 38 39 42 45 48 51 54 56 55 54 52 51 50 51 52 55 57 59 61 62 61 58 56 54 52 50 48 48 50 50 48 46 45 43 41 40 39 37
26 28 30 33 36 37 38 41 44 48 52 55 57 58 56 53 50 49 49 51 53 56 58 60 61 61 58 55 52 48 45 43 42 43 45 46 46 44 43 42 41 39 38 37
28 30 32 34 36 38 41 44 47 50 53 55 56 56 54 51 48 47 49 51 54 57 58 59 60 59 55 51 48 44 40 37 36 37 39 40 41 40 39 39 39 38 36 35
28 30 32 35 38 42 44 46 48 51 53 54 55 55 53 50 47 47 49 52 55 58 58 59 59 57 52 49 45 41 36 32 29 29 30 32 34 35 35 35 34 34 34 33
27 29 33 36 39 41 43 44 47 50 53 54 55 54 53 49 46 47 49 52 55 57 58 58 57 54 51 48 43 39 33 28 24 22 22 24 26 28 29 30 30 30 31 31
25 29 33 35 37 39 41 44 47 50 52 54 55 54 52 49 46 46 49 51 55 57 58 58 56 53 49 46 43 38 33 27 21 18 15 16 18 20 23 24 26 28 29 30
28 30 32 34 36 39 42 45 48 51 52 53 55 54 51 48 45 45 48 50 54 56 58 58 55 51 47 45 43 39 34 28 20 15 10 9 10 14 17 19 22 24 26 28
29 31 33 35 37 40 43 45 48 51 53 53 54 53 51 48 45 44 46 49 53 56 58 57 56 51 46 43 42 40 36 30 22 15 9 5 5 8 12 15 17 20 23 25
30 32 33 35 37 40 42 45 47 50 52 52 53 53 51 47 45 43 45 48 51 54 56 56 56 51 46 42 40 39 37 33 27 19 12 5 2 5 8 12 14 17 19 21
32 33 34 35 37 40 42 44 47 49 51 51 52 52 51 48 44 42 43 45 48 51 53 55 55 51 45 41 39 38 36 34 31 26 21 15 11 8 8 9 12 14 16 18
34 34 34 35 37 40 42 44 46 49 51 51 51 52 51 48 44 41 41 43 45 48 51 53 54 52 46 40 37 36 34 33 31 29 26 22 19 16 14 12 11 13 14 16
34 34 35 35 37 40 43 45 46 49 51 51 51 51 50 48 44 40 38 40 42 44 47 50 52 52 47 40 36 34 32 31 31 29 27 24 21 19 17 16 14 13 13 14
34 34 35 36 37 40 42 44 46 48 50 51 50 50 49 49 44 40 36 36 38 40 43 46 48 49 48 42 36 33 31 30 29 28 26 25 23 21 19 17 15 13 13 14
34 35 36 37 38 40 42 44 46 47 49 50 49 49 49 48 46 40 35 33 34 35 38 41 44 45 46 44 38 34 31 29 28 26 25 24 22 20 18 17 16 16 16 17
35 36 37 38 39 41 43 44 45 47 48 48 48 48 47 47 45 40 35 32 31 32 34 36 38 40 42 41 39 36 32 29 28 27 25 24 23 22 21 21 21 21 22 24
36 37 38 39 40 42 43 44 45 46 47 47 47 46 46 46 45 41 34 29 28 28 29 30 32 34 37 38 37 35 33 30 29 27 26 25 24 24 24 25 26 26 27 28
38 38 39 40 42 43 43 44 45 45 46 46 46 45 44 43 44 42 36 30 26 25 25 25 26 29 31 33 33 32 31 29 28 28 27 26 25 24 25 26 27 27 28 28
39 40 41 42 43 43 44 44 44 45 46 46 45 43 42 42 41 40 36 30 25 22 21 21 21 23 25 27 27 28 27 27 26 25 25 24 24 23 23 24 24 25 24 25
43 44 43 43 44 44 44 44 44 45 45 45 44 43 41 40 40 39 37 32 25 21 19 18 18 18 19 20 22 22 23 24 23 22 22 22 21 21 21 21 22 22 22 23
46 47 46 44 44 44 43 43 42 43 43 43 42 42 40 39 38 38 37 33 27 21 18 15 15 14 14 15 15 17 18 20 20 20 19 19 19 18 18 18 19 19 20 21
45 46 46 45 44 43 42 41 40 41 41 40 40 39 39 38 36 36 36 33 27 22 17 14 13 12 11 11 10 11 12 15 15 16 16 17 17 16 16 16 16 17 17 18
42 44 45 44 42 41 40 39 38 39 39 38 37 37 37 36 35 34 34 33 28 23 18 14 12 10 9 8 7 6 7 8 10 11 12 12 13 13 14 14 15 15 16 16
Wind_Direction
343 342 341 330 323 321 322 323 324 325 325 326 326 326 325 323 321 320 318 316 313 311 309 308 307 306 304 302 300 299 297 295 294 293 291 287 281 276 271 263 257 253 250 248
354 353 353 344 334 328 327 327 328 328 328 329 329 328 326 323 321 320 318 316 315 313 312 310 309 307 305 302 299 296 293 289 287 285 283 281 278 275 272 268 264 260 257 253
358 353 350 344 336 332 332 334 335 334 332 331 332 332 330 326 325 323 321 320 318 317 315 313 311 308 305 301 297 293 288 285 281 278 277 276 275 273 270 266 263 261 261 259
353 348 348 343 339 339 338 338 337 335 335 335 335 334 332 327 325 324 323 323 322 321 319 316 313 309 306 302 297 292 287 282 277 274 272 270 269 268 267 265 262 260 260 261
346 344 343 342 342 340 339 339 337 337 337 336 335 334 332 328 328 327 327 327 326 325 323 320 317 314 310 305 299 293 288 282 276 271 268 267 265 265 264 262 259 258 257 258
337 339 340 341 341 341 340 338 338 337 337 337 337 337 336 333 331 330 330 331 330 330 327 324 322 319 315 312 307 300 292 285 277 271 266 264 262 261 261 259 257 255 254 253
334 337 339 340 340 339 339 340 339 339 340 340 339 337 335 333 332 333 334 335 335 334 332 330 328 327 324 319 314 309 300 290 281 273 266 263 260 257 256 254 253 251 249 248
334 336 337 338 338 340 342 342 342 341 340 339 339 337 336 335 335 337 338 338 339 338 337 335 334 333 331 327 323 318 310 299 287 277 268 262 258 255 252 250 248 247 244 241
330 332 333 338 342 343 343 342 341 340 339 339 340 339 338 337 338 339 340 341 342 342 341 340 339 338 338 335 332 328 321 311 299 283 270 262 257 253 250 247 244 242 238 233
325 330 336 341 343 342 341 339 339 340 340 341 341 341 340 339 339 341 343 344 346 346 346 345 345 345 344 343 341 337 332 323 314 298 278 264 255 250 245 241 239 235 231 227
328 334 338 339 340 340 340 340 340 341 342 342 343 343 342 341 342 344 345 346 349 351 351 351 350 350 351 351 350 347 344 337 327 314 291 269 254 245 237 233 231 227 225 223
331 333 335 337 339 340 341 341 342 343 344 344 345 345 344 343 344 346 348 350 352 354 356 356 355 356 357 359 359 358 354 348 340 329 309 280 251 235 227 224 222 219 217 217
330 332 334 337 339 340 341 342 343 343 344 346 346 346 346 345 346 348 351 353 356 358 360 0 0 0 1 4 7 8 8 5 0 353 337 299 245 219 212 209 208 207 208 209
329 332 334 336 337 338 340 342 343 344 345 346 347 348 348 347 348 349 353 356 358 1 2 4 5 6 7 11 13 15 18 21 22 24 27 39 111 171 184 189 194 196 198 199
329 332 333 334 335 338 340 342 344 345 346 347 349 349 350 349 349 350 354 357 0 3 5 7 9 10 12 15 19 22 26 30 35 41 48 60 77 102 132 156 172 181 186 190
327 330 331 333 334 336 339 341 343 345 346 348 350 351 351 350 350 350 353 358 2 5 8 10 12 13 15 18 22 25 29 33 38 44 52 63 74 85 96 112 136 159 170 178
324 327 329 331 332 334 338 341 343 345 347 349 350 352 352 351 350 350 353 358 3 7 10 13 15 17 19 21 23 26 30 35 39 45 50 58 68 77 85 93 104 123 143 159
322 325 327 328 330 333 336 340 343 345 347 348 349 351 352 352 351 351 353 358 3 8 11 15 18 20 22 24 25 28 31 35 38 43 49 56 63 70 75 81 94 110 127 141
321 323 325 327 329 331 335 338 341 344 346 347 348 349 351 353 352 350 351 356 2 8 13 17 20 22 24 27 28 30 33 36 39 43 48 54 61 66 69 76 88 101 111 121
318 320 322 325 327 330 332 335 339 341 343 345 346 348 350 351 353 351 349 352 359 6 12 17 21 24 26 28 30 33 36 39 41 45 49 54 60 65 72 80 89 99 106 111
314 317 320 323 325 327 329 332 335 338 341 343 344 346 348 350 352 353 351 350 355 2 9 16 21 24 28 31 33 36 39 43 45 48 53 59 66 74 81 87 93 98 102 106
311 315 318 320 321 323 325 328 332 335 337 340 342 343 345 348 350 352 351 350 350 356 3 11 19 24 28 31 34 37 41 44 48 53 58 65 74 84 91 95 99 102 104 107
308 310 313 315 317 319 321 324 328 330 333 336 338 341 343 345 348 351 351 348 347 350 356 3 13 21 27 30 32 36 41 45 49 54 59 65 74 83 92 97 101 103 104 108
305 306 308 311 312 314 318 321 324 326 329 331 334 338 340 343 345 348 350 348 345 345 350 356 4 14 23 27 31 37 41 45 49 54 59 65 74 83 90 95 98 100 103 108
302 303 305 307 308 310 313 317 319 322 324 328 331 334 337 340 342 345 347 348 344 341 343 349 355 3 14 22 28 35 41 43 49 54 58 66 74 84 91 96 98 101 104 109
299 301 303 305 305 306 309 312 314 317 320 324 328 331 333 336 339 342 345 346 343 338 336 338 343 350 360 11 22 32 38 42 49 54 60 66 74 83 90 96 101 104 108 112
297 299 301 302 302 303 305 307 310 313 317 321 325 327 330 333 335 338 341 343 342 337 331 328 331 335 342 352 4 21 32 37 46 54 63 68 74 83 92 99 104 110 114 117
Height
5850 5847 5845 5842 5839 5836 5832 5828 5823 5817 5811 5804 5797 5790 5781 5772 5762 5753 5744 5734 5723 5713 5702 5692 5683 5674 5665 5656 5648 5640 5633 5627 5621 5617 5614 5611 5610 5609 5609 5610 5611 5614 5618 5623
5849 5847 5844 5841 5837 5832 5828 5823 5818 5812 5806 5799 5791 5783 5773 5763 5753 5743 5732 5720 5709 5698 5688 5678 5669 5660 5651 5642 5634 5626 5619 5613 5608 5604 5601 5599 5597 5596 5596 5596 5596 5597 5599 5602
5849 5845 5843 5839 5834 5828 5822 5817 5811 5804 5798 5789 5782 5773 5762 5750 5739 5727 5716 5705 5694 5684 5674 5664 5654 5644 5634 5624 5615 5607 5601 5596 5591 5588 5585 5584 5583 5582 5582 5583 5583 5584 5585 5587
5846 5844 5839 5837 5829 5822 5815 5809 5803 5797 5789 5780 5770 5762 5751 5738 5726 5715 5704 5693 5682 5671 5661 5649 5637 5625 5614 5604 5594 5585 5579 5574 5570 5568 5566 5566 5566 5566 5567 5568 5570 5571 5573 5574
5842 5838 5835 5830 5824 5817 5810 5803 5796 5789 5781 5772 5763 5754 5744 5729 5715 5703 5692 5681 5670 5658 5645 5632 5619 5605 5592 5581 5570 5561 5555 5550 5547 5545 5545 5546 5547 5549 5551 5553 5555 5557 5560 5562
5839 5835 5830 5826 5819 5811 5805 5798 5790 5782 5773 5763 5752 5741 5732 5718 5705 5694 5683 5671 5659 5646 5632 5617 5602 5586 5572 5559 5546 5537 5530 5526 5524 5523 5524 5525 5528 5531 5534 5537 5540 5543 5546 5549
5836 5830 5825 5820 5813 5807 5801 5794 5784 5773 5763 5752 5742 5731 5720 5708 5697 5685 5674 5662 5649 5635 5619 5603 5587 5570 5555 5541 5528 5518 5510 5505 5502 5502 5502 5505 5509 5513 5517 5521 5525 5529 5533 5537
5830 5825 5822 5814 5808 5801 5794 5784 5774 5765 5756 5747 5736 5724 5712 5699 5688 5677 5666 5653 5640 5625 5609 5592 5574 5557 5542 5528 5515 5503 5494 5488 5484 5483 5483 5486 5490 5495 5500 5505 5510 5515 5520 5525
5827 5823 5816 5809 5800 5792 5784 5777 5769 5761 5751 5741 5730 5718 5705 5693 5681 5670 5658 5646 5631 5616 5600 5583 5565 5548 5532 5518 5505 5493 5483 5476 5471 5468 5468 5471 5475 5480 5485 5491 5496 5502 5508 5514
5823 5817 5810 5803 5796 5789 5782 5774 5766 5757 5746 5735 5723 5711 5698 5686 5675 5664 5652 5639 5625 5609 5593 5576 5559 5542 5526 5511 5498 5486 5476 5468 5463 5459 5458 5459 5462 5467 5473 5478 5484 5490 5497 5503
5819 5813 5807 5801 5794 5787 5780 5771 5762 5752 5741 5729 5717 5705 5692 5680 5669 5658 5646 5633 5619 5603 5587 5570 5553 5537 5522 5507 5494 5482 5471 5463 5457 5454 5452 5452 5454 5458 5463 5468 5474 5480 5487 5494
5814 5809 5803 5797 5790 5783 5775 5766 5756 5746 5735 5723 5711 5699 5687 5675 5664 5654 5642 5629 5615 5600 5584 5567 5550 5535 5520 5506 5493 5481 5470 5461 5454 5450 5448 5448 5449 5452 5456 5461 5467 5473 5479 5486
5809 5804 5798 5791 5784 5777 5769 5760 5750 5740 5729 5718 5706 5694 5682 5671 5660 5649 5638 5626 5612 5598 5582 5566 5550 5534 5520 5507 5495 5483 5471 5461 5454 5449 5447 5446 5447 5450 5453 5458 5463 5468 5474 5481
5804 5799 5792 5786 5780 5773 5765 5756 5746 5736 5725 5714 5703 5691 5679 5667 5656 5646 5636 5624 5611 5597 5582 5567 5551 5536 5523 5511 5499 5488 5477 5467 5459 5453 5449 5448 5449 5451 5454 5458 5462 5467 5472 5478
5799 5793 5787 5781 5775 5768 5760 5752 5743 5733 5722 5711 5700 5687 5676 5665 5654 5644 5634 5623 5611 5598 5584 5570 5555 5541 5528 5516 5506 5496 5486 5477 5469 5462 5457 5455 5454 5455 5457 5460 5464 5468 5472 5477
5792 5787 5781 5776 5770 5763 5756 5747 5739 5729 5718 5707 5696 5685 5673 5662 5652 5642 5633 5623 5612 5600 5588 5574 5560 5546 5533 5523 5513 5504 5496 5488 5480 5474 5469 5466 5464 5463 5464 5465 5467 5470 5474 5478
5787 5781 5776 5771 5764 5758 5751 5743 5734 5724 5713 5703 5692 5682 5671 5661 5650 5642 5633 5623 5613 5602 5591 5578 5565 5553 5541 5530 5521 5513 5506 5499 5492 5486 5481 5477 5475 5474 5473 5473 5474 5476 5478 5481
5781 5776 5771 5765 5759 5752 5745 5738 5729 5720 5710 5699 5689 5680 5670 5660 5650 5641 5633 5624 5615 5605 5595 5584 5572 5561 5550 5539 5530 5522 5515 5509 5503 5498 5493 5489 5486 5484 5483 5482 5482 5483 5484 5486
5775 5769 5764 5758 5752 5746 5739 5732 5724 5716 5706 5697 5687 5678 5668 5659 5649 5639 5632 5625 5617 5609 5600 5589 5579 5570 5559 5549 5539 5532 5525 5519 5513 5508 5504 5500 5497 5494 5493 5491 5491 5491 5491 5493
5768 5763 5757 5752 5746 5740 5733 5727 5719 5712 5703 5694 5685 5676 5667 5657 5648 5639 5631 5624 5618 5610 5603 5594 5586 5577 5568 5559 5550 5542 5535 5529 5524 5519 5515 5511 5507 5505 5503 5501 5500 5500 5501 5502
5760 5755 5750 5745 5739 5733 5728 5722 5715 5708 5700 5691 5683 5674 5665 5656 5647 5639 5631 5625 5619 5612 5606 5599 5592 5584 5576 5568 5561 5553 5546 5540 5535 5530 5526 5522 5519 5516 5515 5513 5512 5512 5513 5514
5751 5747 5743 5738 5732 5727 5722 5716 5710 5703 5696 5688 5680 5672 5664 5655 5646 5637 5630 5624 5619 5613 5608 5602 5596 5589 5583 5576 5570 5564 5557 5552 5546 5541 5537 5534 5531 5529 5527 5526 5525 5525 5526 5527
5743 5739 5735 5731 5726 5721 5716 5710 5704 5697 5691 5684 5677 5669 5661 5653 5645 5637 5630 5623 5618 5613 5608 5604 5598 5593 5588 5583 5578 5572 5567 5561 5557 5552 5548 5545 5543 5541 5539 5538 5538 5538 5538 5539
5733 5730 5727 5723 5718 5713 5709 5704 5698 5692 5685 5679 5672 5665 5658 5651 5643 5635 5628 5621 5616 5612 5608 5604 5600 5596 5591 5587 5583 5579 5574 5570 5565 5562 5558 5555 5553 5551 5550 5549 5549 5549 5549 5550
5723 5719 5717 5714 5710 5705 5701 5696 5691 5686 5680 5674 5667 5661 5654 5648 5641 5634 5627 5620 5614 5610 5606 5603 5600 5597 5593 5590 5587 5583 5580 5576 5573 5569 5566 5564 5562 5560 5559 5558 5558 5558 5559 5559
5713 5709 5706 5703 5700 5696 5693 5689 5685 5679 5674 5669 5663 5657 5650 5644 5638 5631 5625 5618 5612 5608 5604 5602 5599 5597 5594 5591 5589 5586 5583 5581 5578 5576 5573 5571 5569 5568 5567 5566 5566 5566 5566 5567
5704 5700 5696 5693 5689 5686 5684 5680 5677 5672 5667 5662 5657 5652 5646 5640 5634 5628 5622 5616 5610 5605 5602 5599 5597 5596 5594 5591 5589 5587 5586 5584 5582 5580 5578 5576 5575 5574 5573 5573 5572 5573 5573 5574